カタログに戻る

COSMOS 1394

運用中ナビゲーションLEO
NORAD 13381·PAYLOAD·🇷🇺 Russia

打ち上げ Jul 21, 1982 から Plesetsk Cosmodrome

Loading…

次のパス (今後24時間)

TLE

最新Source: Space-Track

元期: Sep 14, 2026, 08:25 UTC

1 13381U 82073G   26257.35069775 -.00000025  00000-0 -65939-4 0  9995
2 13381  74.0165  31.7267 0013566  27.7013   0.6542 12.45193140  6933

AllMySatでCOSMOS 1394をリアルタイム追跡

Download on the App Store